Tracking 27124 objects as of 31-Mar-2023
HD Live streaming from Space Station
objects crossing your sky now

INS-1B

Track INS-1B now!
10-day predictions


NORAD ID: 41954
Int'l Code: 2017-008G
Perigee: 429.4 km
Apogee: 435.1 km
Inclination: 97.2 °
Period: 93.1 minutes
Semi major axis: 6803 km
RCS: Unknown
Launch date: February 15, 2017
Source: India (IND)
Launch site: SRIHARIKOTA (SRI)
Your satellite tracking list
Your tracking list is empty




NASA's NSSDC Master Catalog

Two Line Element Set (TLE):
1 41954U 17008G   23089.88950707  .00080784  00000-0  15801-2 0  9999
2 41954  97.2119 150.2872 0004137 267.7836  92.2941 15.47135010340734
Source of the keplerian elements: AFSPC